This is the latest recevied weather packets stored in our database for station/object KN6KS. If no packets are shown the sender has not sent any weather packets the latest 10 day(s).
| Time | Temp. | Humidity | Pressure | Rain* | Wind** | Luminosity | Snow |
|---|---|---|---|---|---|---|---|
| 1777651979 | 23.33° C | 31% | 1014.2 hPa | 0 mm | - | 572 W/m² | - |
| 1777651675 | 23.33° C | 33% | 1014.1 hPa | 0 mm | - | 546 W/m² | - |
| 1777651372 | 23.33° C | 33% | 1014.4 hPa | 0 mm | - | 530 W/m² | - |
| 1777651070 | 23.33° C | 32% | 1014.2 hPa | 0 mm | - | 515 W/m² | - |
| 1777650767 | 22.78° C | 32% | 1014.2 hPa | 0 mm | - | 478 W/m² | - |
| 1777650463 | 23.33° C | 32% | 1014.3 hPa | 0 mm | - | 426 W/m² | - |
| 1777650160 | 22.78° C | 33% | 1014.1 hPa | 0 mm | - | 397 W/m² | - |
| 1777649858 | 22.78° C | 35% | 1014 hPa | 0 mm | - | 376 W/m² | - |
| 1777649556 | 22.22° C | 37% | 1014 hPa | 0 mm | - | 348 W/m² | - |
| 1777649252 | 21.11° C | 40% | 1014.1 hPa | 0 mm | - | 327 W/m² | - |
| 1777648948 | 20° C | 41% | 1014.1 hPa | 0 mm | - | 301 W/m² | - |
| 1777648646 | 20° C | 42% | 1014.1 hPa | 0 mm | - | 274 W/m² | - |
| 1777648342 | 19.44° C | 43% | 1014.2 hPa | 0 mm | - | 248 W/m² | - |
| 1777648039 | 20° C | 42% | 1014.1 hPa | 0 mm | - | 55 W/m² | - |
| 1777647734 | 19.44° C | 43% | 1014.1 hPa | 0 mm | - | 234 W/m² | - |
| 1777647431 | 18.89° C | 44% | 1014.2 hPa | 0 mm | - | 203 W/m² | - |
| 1777647129 | 18.89° C | 45% | 1014.1 hPa | 0 mm | - | 182 W/m² | - |
| 1777646825 | 18.89° C | 44% | 1014.1 hPa | 0 mm | - | 161 W/m² | - |
| 1777646520 | 18.89° C | 44% | 1014.1 hPa | 0 mm | - | 146 W/m² | - |
| 1777646216 | 18.89° C | 43% | 1013.9 hPa | 0 mm | - | 137 W/m² | - |
| 1777645915 | 19.44° C | 43% | 1013.9 hPa | 0 mm | - | 136 W/m² | - |
| 1777645611 | 17.78° C | 45% | 1013.8 hPa | 0 mm | - | 122 W/m² | - |
| 1777645307 | 18.33° C | 45% | 1014 hPa | 0 mm | - | 110 W/m² | - |
| 1777645003 | 17.78° C | 47% | 1013.6 hPa | 0 mm | - | 72 W/m² | - |
| 1777644701 | 16.67° C | 49% | 1013.6 hPa | 0 mm | - | 55 W/m² | - |
* Rain latest hour (hover to see other rain measurements)
** Current wind speed in m/s (hover to see current wind gust speed)